Meath Environmental Platform

Observations

Time Sensor AQI SAQ Temp °C Hum % Pres Pa CO μg/m³ H₂S μg/m³ NO μg/m³ NO₂ μg/m³ O₃ μg/m³ SO₂ μg/m³ CO₂e PPM VOC PPM PM1 μg/m³ PM2.5 μg/m³ PM4 μg/m³ PM10 μg/m³ TPS µm
Wednesday 12 August 2026
13:47 Trim Patrick St 2 33.8 36 69,515 0 13.16 0.42 20.42 113.1 19.54 4.57 11.27 12.4
13:46 Trim Patrick St 2 33.8 36 69,499 0 0.33 0.42 12.12 96.22 17.53 5.43 11.28 12.4
13:45 Trim Patrick St 2 33.8 36 69,511 0 12.43 0.4 12.19 144.18 20.75 4.57 10.46 11.51
13:44 Trim Market St 2 36.9 29 66,756 0 21.85 0 13.39 127.19 3.92 2.14 5.54 6.09
13:44 Trim Patrick St 2 33.9 36 69,501 0 6.25 0.4 12.14 138.11 20.77 4.57 10.48 11.52
13:43 Trim Patrick St 2 33.9 35 69,515 0 0 0.41 12.2 109.85 17.77 4.57 11.31 12.44
13:42 Trim Patrick St 2 33.9 36 69,501 0 3.58 0.4 12.15 104.84 19.18 6.29 12.89 14.17
13:41 Trim Patrick St 2 34 36 69,513 0 11.55 0.38 12.3 116.37 20.21 3.71 8.9 9.79
13:40 Trim Patrick St 2 34 36 69,501 0 10.52 0.4 12.99 125.19 19.93 4.57 10.5 11.55
13:39 Trim Patrick St 2 34.1 36 69,485 0 0 0.36 12.16 107.39 18.98 4.57 11.28 12.41
13:38 Trim Patrick St 2 34.1 35 69,491 0 14.75 0.36 12.18 131.73 21.21 5.43 12.89 14.18
13:37 Trim Market St 2 38.1 27 66,869 0 15.26 0.09 13.35 128.58 4.67 1.43 4.52 4.97
13:37 Trim Patrick St 2 34.2 35 69,495 0 16.6 0.35 16.03 132.25 21.23 4.57 11.33 12.47
13:36 Trim Market St 2 38.3 27 66,904 0 10.25 0.07 13.58 116.57 4.23 2.85 6.17 6.79
13:36 Trim Patrick St 2 34.3 35 69,503 0 0 0.34 12.22 111.83 19.41 2.86 9.77 10.74
13:35 Trim Market St 2 38.6 27 66,949 0 10.95 0.05 13.79 110.28 4.55 1.43 5.64 6.2
13:35 Trim Patrick St 2 34.4 35 69,515 0 0 0.33 12.04 126.12 20.12 4.57 9.77 10.75
13:34 Trim Market St 2 38.8 27 66,945 0 7.62 0.02 13.61 116.6 4.67 0.71 4.55 4.87
13:34 Trim Patrick St 2 34.4 35 69,501 0 0.64 0.33 12.25 106.92 19.89 3.71 10.56 11.62
13:33 Trim Market St 2 39 26 66,969 0 3.9 0 13.45 131 4.64 2.14 5.66 5.75